Glasgow, United Kingdom

9:34 AM GMT on February 06, 2016 (GMT +0000)
Glasgow

Weather History for EGPF - January, 2013

Change the Weather History Date:

Tuesday, January 29, 2013

  Actual Average Record
Temperature  
Mean Temperature 48 °F -  
Max Temperature 53 °F 44 °F 53 °F (2013)
Min Temperature 44 °F 32 °F 24 °F (1998)
Degree Days  
Heating Degree Days 16    
Moisture  
Dew Point 41 °F    
Average Humidity 82    
Maximum Humidity 94    
Minimum Humidity 66    
Precipitation  
Precipitation 0.00 in - - ()
Sea Level Pressure  
Sea Level Pressure 29.15 in    
Wind  
Wind Speed 16 mph ()    
Max Wind Speed 37 mph    
Max Gust Speed 53 mph    
Visibility 5.7 miles    
Events Rain    
Averages and records for this station are not official NWS values.
T = Trace of Precipitation, MM = Missing Value Source: Averaged Metar Reports

Daily Weather History Graph

Daily Weather History Graph

Search for Another Location

Airport or City:

Trip Planner

Search our weather history database for the weather conditions in past years. The results will help you decide how hot, cold, wet, or windy it might be!

Date:

Astronomy

Jan. 29, 2013 Rise Set
Actual Time 8:17 AM GMT 4:45 PM GMT
Civil Twilight 7:35 AM GMT 5:26 PM GMT
Nautical Twilight 6:50 AM GMT 6:11 PM GMT
Astronomical Twilight 6:07 AM GMT 6:55 PM GMT
Moon 8:07 PM GMT (1/29) 8:31 AM GMT (1/29)
Length of Visible Light 9h 50m
Length of Day
8h 27m
Waning Gibbous, 95% of the Moon is Illuminated
Jan 29
Waning Gibbous
Feb 3
Last Quarter
Feb 10
New
Feb 17
First Quarter
Feb 25
Full

Hourly Weather History & Observations

Time (GMT) Temp. Windchill Dew Point Humidity Pressure Visibility Wind Dir Wind Speed Gust Speed Precip Events Conditions
12:20 AM 46.4 °F 39.2 °F 44.6 °F 93% 29.03 in 3.7 mi WSW 18.4 mph 33.4 mph N/A Rain Light Rain
12:50 AM 48.2 °F - 42.8 °F 82% 29.06 in 4.3 mi West 19.6 mph - N/A Rain Light Rain
1:20 AM 46.4 °F 39.5 °F 42.8 °F 87% 29.09 in 6.2 mi West 17.3 mph - N/A   Scattered Clouds
1:50 AM 46.4 °F 39.8 °F 42.8 °F 87% 29.15 in 6.2 mi West 16.1 mph - N/A   Mostly Cloudy
2:20 AM 46.4 °F 40.1 °F 41.0 °F 81% 29.18 in 6.2 mi West 15.0 mph - N/A   Mostly Cloudy
2:50 AM 46.4 °F 39.8 °F 41.0 °F 81% 29.24 in 6.2 mi West 16.1 mph - N/A   Mostly Cloudy
3:20 AM 46.4 °F 40.1 °F 41.0 °F 81% 29.24 in 6.2 mi WSW 15.0 mph - N/A   Mostly Cloudy
3:50 AM 44.6 °F 37.4 °F 41.0 °F 87% 29.27 in 6.2 mi WSW 16.1 mph - N/A   Mostly Cloudy
4:20 AM 44.6 °F 37.8 °F 41.0 °F 87% 29.30 in 6.2 mi SW 15.0 mph - N/A   Mostly Cloudy
4:50 AM 46.4 °F 40.4 °F 41.0 °F 81% 29.30 in 6.2 mi SW 13.8 mph - N/A   Mostly Cloudy
5:20 AM 46.4 °F 39.8 °F 41.0 °F 81% 29.30 in 6.2 mi WSW 16.1 mph - N/A   Mostly Cloudy
5:50 AM 46.4 °F 39.5 °F 41.0 °F 81% 29.33 in 6.2 mi WSW 17.3 mph - N/A   Overcast
6:20 AM 46.4 °F 39.8 °F 41.0 °F 81% 29.33 in 6.2 mi West 16.1 mph - N/A   Mostly Cloudy
6:50 AM 46.4 °F 39.5 °F 41.0 °F 81% 29.33 in 6.2 mi WSW 17.3 mph - N/A   Mostly Cloudy
7:20 AM 44.6 °F 37.2 °F 41.0 °F 87% 29.33 in 6.2 mi SW 17.3 mph - N/A   Mostly Cloudy
7:50 AM 44.6 °F 38.4 °F 41.0 °F 87% 29.33 in 6.2 mi SSW 12.7 mph - N/A   Mostly Cloudy
8:20 AM 44.6 °F 38.1 °F 41.0 °F 87% 29.33 in 6.2 mi SW 13.8 mph - N/A   Scattered Clouds
8:50 AM 44.6 °F 37.8 °F 41.0 °F 87% 29.33 in 6.2 mi SW 15.0 mph - N/A   Scattered Clouds
9:20 AM 44.6 °F 38.4 °F 39.2 °F 81% 29.30 in 6.2 mi SW 12.7 mph - N/A   Partly Cloudy
9:50 AM 44.6 °F 40.7 °F 39.2 °F 81% 29.30 in 6.2 mi SSW 6.9 mph - N/A   Scattered Clouds
10:20 AM 44.6 °F 37.8 °F 41.0 °F 87% 29.30 in 6.2 mi South 15.0 mph - N/A   Scattered Clouds
10:50 AM 46.4 °F 41.1 °F 41.0 °F 81% 29.27 in 6.2 mi South 11.5 mph - N/A   Scattered Clouds
11:20 AM 46.4 °F 44.3 °F 41.0 °F 81% 29.27 in 6.2 mi South 4.6 mph - N/A   Scattered Clouds
11:50 AM 46.4 °F 43.5 °F 41.0 °F 81% 29.21 in 5.6 mi SSE 5.8 mph - N/A Rain Light Rain
12:20 PM 46.4 °F 44.3 °F 41.0 °F 81% 29.21 in 4.3 mi SSE 4.6 mph - N/A Rain Light Rain
12:50 PM 44.6 °F 40.7 °F 42.8 °F 93% 29.15 in 3.7 mi ENE 6.9 mph - N/A Rain Light Rain
1:20 PM 44.6 °F 40.7 °F 42.8 °F 93% 29.12 in 3.1 mi ENE 6.9 mph - N/A Rain Rain
1:50 PM 46.4 °F 43.5 °F 44.6 °F 93% 29.09 in - East 5.8 mph - N/A Rain Rain
2:20 PM 46.4 °F 44.3 °F 44.6 °F 93% 29.06 in 2.2 mi Variable 4.6 mph - N/A Rain Rain
2:50 PM 50.0 °F - 48.2 °F 94% 29.00 in 6.2 mi South 17.3 mph - N/A Rain Light Rain
3:20 PM 51.8 °F - 50.0 °F 94% 28.97 in 2.2 mi South 18.4 mph 29.9 mph N/A Rain Rain
3:50 PM 53.6 °F - 50.0 °F 88% 28.94 in - SSW 23.0 mph - N/A Rain Rain
4:20 PM 53.6 °F - 50.0 °F 88% 28.94 in 2.2 mi SSW 25.3 mph - N/A Rain Rain
4:50 PM 51.8 °F - 50.0 °F 94% 28.97 in 5.6 mi SW 31.1 mph 42.6 mph N/A Rain Light Rain
5:20 PM 50.0 °F - 46.4 °F 87% 29.00 in 6.2 mi WSW 18.4 mph - N/A   Scattered Clouds
5:50 PM 50.0 °F - 42.8 °F 76% 29.00 in 6.2 mi WSW 24.2 mph - N/A   Scattered Clouds
6:20 PM 48.2 °F - 39.2 °F 71% 29.03 in 6.2 mi WSW 21.9 mph 38.0 mph N/A   Scattered Clouds
6:50 PM 48.2 °F - 37.4 °F 66% 29.03 in 6.2 mi WSW 24.2 mph 35.7 mph N/A   Mostly Cloudy
7:20 PM 46.4 °F 36.9 °F 39.2 °F 76% 29.03 in 6.2 mi WSW 32.2 mph 48.3 mph N/A   Mostly Cloudy
7:50 PM 46.4 °F 37.9 °F 37.4 °F 71% 29.06 in 6.2 mi WSW 25.3 mph - N/A   Mostly Cloudy
8:20 PM 46.4 °F 37.0 °F 37.4 °F 71% 29.06 in 6.2 mi WSW 31.1 mph 48.3 mph N/A   Scattered Clouds
8:50 PM 46.4 °F 36.3 °F 37.4 °F 71% 29.06 in 6.2 mi WSW 36.8 mph 52.9 mph N/A   Mostly Cloudy
9:20 PM 46.4 °F 36.9 °F 35.6 °F 66% 29.06 in 6.2 mi WSW 32.2 mph 47.2 mph N/A   Scattered Clouds
9:50 PM 46.4 °F 36.7 °F 35.6 °F 66% 29.09 in 6.2 mi WSW 33.4 mph 47.2 mph N/A   Scattered Clouds
10:20 PM 46.4 °F 37.0 °F 35.6 °F 66% 29.09 in 6.2 mi WSW 31.1 mph 46.0 mph N/A   Mostly Cloudy
10:50 PM 46.4 °F 36.7 °F 35.6 °F 66% 29.09 in 6.2 mi WSW 33.4 mph - N/A   Mostly Cloudy
11:20 PM 44.6 °F 34.9 °F 35.6 °F 71% 29.12 in 6.2 mi WSW 28.8 mph 40.3 mph N/A   Mostly Cloudy
11:50 PM 44.6 °F 34.9 °F 35.6 °F 71% 29.12 in 6.2 mi WSW 28.8 mph - N/A   Mostly Cloudy